Location: Krakow
(50.0212°N, 19.9423°E)
Time: 15:05:31
(UTC+01:00)

ISS - Visible Passes

Search period start: 08 December 2025 00:00
Search period end: 18 December 2025 00:00
Orbit: 416 x 421 km, 51.6° (Epoch: 07 December)

Date Brightness Start Highest point End Pass type
(mag) Time Alt. Az. Time Alt. Az. Time Alt. Az.
12 Dec -0.7 06:27:54 10° S 06:30:13 17° SE 06:32:32 10° E visible
13 Dec -0.4 05:41:17 10° SSE 05:42:31 12° SE 05:43:43 10° ESE visible
14 Dec -2.0 06:27:41 10° SW 06:30:48 35° SSE 06:33:55 10° E visible
15 Dec -1.5 05:40:08 10° SSW 05:42:56 25° SE 05:45:46 10° E visible
16 Dec -1.1 04:53:51 14° SSE 04:55:07 17° SE 04:57:23 10° E visible
16 Dec -3.4 06:28:05 10° WSW 06:31:27 68° SSE 06:34:49 10° ENE visible
17 Dec -2.9 05:41:26 20° SW 05:43:28 49° SSE 05:46:45 10° ENE visible
